User: anonymous   Login
Location: Unspecified
(0.0000°N, 0.0000°E)
Time: 03:36:06
(UTC+00:00)
Language:

PLEIADES HR1 - Orbit

View from above orbital plane
View from above orbital plane
View from above satellite
View from above satellite

Ground track
Ground track

The orbit data is extracted from the following two-line orbital elements,

1 38012U 11076F   15182.73125772  .00000176  00000-0  47738-4 0  9997
2 38012 098.1926 257.2498 0001564 078.9272 281.2093 14.58541660188427
Epoch (UTC): 01 July 2015 17:33:00
Eccentricity: 0.0001564
inclination: 98.1926°
perigee height: 697 km
apogee height: 699 km
right ascension of ascending node: 257.2498°
argument of perigee: 78.9272°
revolutions per day: 14.58541660
mean anomaly at epoch: 281.2093°
orbit number at epoch: 18842

The dashed part of the orbit path shows where the satellite is in the earth's shadow,  

DLR